Location: Unspecified
(0.0000°N, 0.0000°E)
Time: 21:59:25
(UTC+00:00)

RS-8 - Pass Details

Date: 13 October 2022
Orbit: 1579 x 1660 km, 83.0° (Epoch: 05 December)

Event Time Altitude Azimuth Distance (km) Brightness Sun altitude
Rises 19:22:02 0° 176° (S) 4,768 10.6 -23.7°
Reaches altitude 10° 19:25:01 10° 172° (S) 3,782 10.1 -24.5°
Maximum altitude 19:34:02 64° 92° (E) 1,730 7.9 -26.7°
Drops below altitude 10° 19:43:05 10° 13° (NNE) 3,802 9.8 -28.9°
Sets 19:46:05 0° 10° (N) 4,795 10.4 -29.7°
